Zurück zum Katalog

SL-12 R/B

AUX MOTOR

AktivHEO
NORAD 23403·ROCKET BODY·🇷🇺 Russia

Gestartet Nov 20, 1994 von Baikonur Cosmodrome

Loading…

Nächste Überflüge (nächste 24 Stunden)

TLE

AktuellSource: Space-Track

Epoche: Sep 13, 2026, 20:53 UTC

1 23403U 94076H   26256.87046630 -.00000002  00000-0  22768-3 0  9994
2 23403  65.5472 291.1837 5564637 104.4211  18.6993  4.27489323494480

Verfolge SL-12 R/B in Echtzeit mit AllMySat

Download on the App Store